Location: Wangen+im+Allg�u
(47.7098°N, 9.8383°E)
Time: 09:23:08
(UTC+01:00)

ISS - Pass Details

Date: 11 November 2017
Orbit: 402 x 407 km, 51.6° (Epoch: 21 November)

Event Time Altitude Azimuth Distance (km) Brightness Sun altitude
Exits shadow 05:09:52 37° 33° (NNE) 644 -2.6 -22.0°
Drops below altitude 10° 05:12:26 10° 78° (ENE) 1,457 0.1 -21.5°
Sets 05:14:35 0° 86° (E) 2,315 1.5 -21.2°
